This is the latest recevied weather packets stored in our database for station/object KC8JWT. If no packets are shown the sender has not sent any weather packets the latest 1 day(s).
| Time | Temp. | Humidity | Pressure | Rain* | Wind** | Luminosity | Snow |
|---|---|---|---|---|---|---|---|
| 1778071255 | 15° C | 99% | 1007.3 hPa | 0 mm | - | 30 W/m² | - |
| 1778070953 | 15° C | 99% | 1007 hPa | 0 mm | - | 42 W/m² | - |
| 1778070651 | 14.44° C | 99% | 1007.3 hPa | 0 mm | - | 19 W/m² | - |
| 1778070347 | 14.44° C | 99% | 1007.3 hPa | 0 mm | - | 16 W/m² | - |
| 1778068532 | 14.44° C | 99% | 1006.8 hPa | 0 mm | - | 20 W/m² | - |
| 1778067927 | 14.44° C | 99% | 1007.2 hPa | 0 mm | - | 12 W/m² | - |
| 1778067625 | 14.44° C | 99% | 1007.1 hPa | 0 mm | - | 14 W/m² | - |
| 1778067323 | 14.44° C | 99% | 1007 hPa | 0 mm | - | 10 W/m² | - |
| 1778067020 | 14.44° C | 99% | 1006.8 hPa | 0 mm | - | 10 W/m² | - |
| 1778066716 | 14.44° C | 99% | 1007.1 hPa | 0 mm | - | 6 W/m² | - |
| 1778066414 | 14.44° C | 99% | 1006.8 hPa | 0 mm | - | 6 W/m² | - |
| 1778063386 | 13.89° C | 99% | 1006.4 hPa | 1.78 mm | - | 0 W/m² | - |
| 1778062175 | 13.89° C | 99% | 1006.5 hPa | 3.05 mm | - | 0 W/m² | - |
| 1778061571 | 13.89° C | 99% | 1006.5 hPa | 0 mm | - | 0 W/m² | - |
| 1778060965 | 13.89° C | 99% | 1006.7 hPa | 1.27 mm | - | 0 W/m² | - |
| 1778060664 | 13.89° C | 99% | 1006.5 hPa | 7.87 mm | - | 0 W/m² | - |
| 1778060361 | 13.89° C | 99% | 1006.8 hPa | 7.87 mm | - | 0 W/m² | - |
| 1778059454 | 13.89° C | 99% | 1006.8 hPa | 0 mm | - | 0 W/m² | - |
| 1778058849 | 13.89° C | 99% | 1006.8 hPa | 1.27 mm | - | 0 W/m² | - |
| 1778057636 | 13.89° C | 99% | 1006.9 hPa | 0 mm | - | 0 W/m² | - |
| 1778056726 | 13.89° C | 99% | 1006.8 hPa | 8.89 mm | - | 0 W/m² | - |
| 1778056121 | 13.89° C | 99% | 1006.9 hPa | 1.78 mm | - | 0 W/m² | - |
| 1778054909 | 14.44° C | 99% | 1006.9 hPa | 21.59 mm | - | 0 W/m² | - |
| 1778054605 | 14.44° C | 99% | 1006.9 hPa | 21.59 mm | - | 0 W/m² | - |
| 1778054000 | 14.44° C | 99% | 1007.1 hPa | 1.27 mm | - | 0 W/m² | - |
* Rain latest hour (hover to see other rain measurements)
** Current wind speed in m/s (hover to see current wind gust speed)